THORAD AGENA D DEB, 4772

Orbit data source: Space-Track

THORAD AGENA D DEB, 4772 is space debris in SSO originally from a launch on Wed, 08 Apr 1970 UTC launched from the Air Force Western Test Range (AFWTR). Debris objects in space refer to the collection of defunct objects orbiting the Earth. Examples of debris include non-operational satellites, rocket bodies, and fragments generated from explosions, collisions, or faulty payload assembly.

Loading next visibility...
Identifier
4772, 1970-025DS
Orbit
SSO
Country
Flag of USUS
Related business
Manufacturer
Unknown
Mission
Spacecraft
Bus & Motor
Unknown
Mass
Unknown
Launch date (UTC)
1970-04-08 (56 years ago)
Launch vehicle
Unknown
Launch site
Air Force Western Test Range (AFWTR)
Object type
Payload
Rocket body
Debris
Shape & HBR
Unknown shape, 0.1 m
Radar Cross Section
Small (<0.1 m²)

Expand to show TLE details & history
Last TLE update: 18 hours ago

TLE from 18 hours ago
0 THORAD AGENA D DEB
1 04772U 70025DS  25299.43505865  .00000718  00000-0  15601-2 0  9998
2 04772  99.7413 104.1960 0181386 125.9659 291.6496 13.26680801671174
Epoch: 2025-10-26T10:26Z
TLE epoch observation values (Epoch: 2025-10-26T10:26:29.067Z)
Latitude
54.57372°
Longitude
-101.3689°
Altitude
1,119.927 km
Speed
7.321 km/s
True Right ascension
06h 01m 12s
True Declination
54° 25' 08"
Sunlit
Object was in daylight at epoch
Visualization orbit readout
Latitude
Unknown
Longitude
Unknown
Altitude
Unknown
Speed
Unknown
Apparent Right ascension
Unknown
Apparent Declination
Unknown
Sunlit
N/A
Visualization observer readout
Local Sidereal Time
23:36:37
Azimuth
Unknown
Elevation
Unknown
Doppler factor
Unknown
Orbital elements
Apogee altitude
1,293.313 km
Perigee altitude
1,019.972 km
Semi-major axis
7,534.779 km
Eccentricity
0.01814
Inclination
99.7413°
RAAN
104.196°
Arg. of periapsis
125.9659°
True anomaly
289.70178°
Mean anomaly
291.6496°
Eccentric anomaly
290.67728°
Mean motion
3.31847 °/min
Orbital period
108.48 mins
BSTAR
0.0015601

Documentation

Showing up to 5 results
|